Regional Weather Roundup
Issued by NWS

Home | Current Version | Previous Version | Text Only | Print | Product List | Glossary On
Versions: 1 2 3 4 5 6 7 8 9 10 11 12 13 14 15 16 17 18 19 20 21 22 23 24 25 26 27
000
ASUS42 KFFC 290803
RWRGA
WEATHER ROUNDUP FOR GEORGIA
NATIONAL WEATHER SERVICE PEACHTREE CITY GA
400 AM EDT MON AUG 29 2016

NOTE: "FAIR" INDICATES FEW OR NO CLOUDS BELOW 12,000 FEET WITH NO
SIGNIFICANT WEATHER AND/OR OBSTRUCTIONS TO VISIBILITY.

* = USE WITH CAUTION. THE STATIONS MARKED WITH AN ASTERISK MAY NOT
REPORT WEATHER SUCH AS PRECIPITATION, FOG, OR THUNDER AND ARE NOT
QUALITY CONTROLLED BY NWS.

THE REMARK "TC" DENOTES TEMPERATURE READING IN DEGREES CELSIUS.

GAZ001>058-290900-
NORTH GEORGIA

CITY           SKY/WX    TMP DP  RH WIND       PRES   REMARKS
ATLANTA        CLEAR     77  67  71 NE9       30.11R
ATHENS         CLEAR     72  68  87 NE5       30.12S
CHAMBLEE       CLEAR     76  65  68 CALM      30.12S
PEACHTREE CITY MOCLDY    73  70  90 CALM      30.10S
ROME           PTCLDY    71  69  93 CALM      30.10S
WEST ATLANTA   CLEAR     76  66  71 CALM      30.10S
GAINESVILLE    CLEAR     74  63  68 E7        30.16F
CARTERSVILLE   CLEAR     74  69  85 CALM      30.11S


CITY           SKY/WX    TMP DP  RH WIND       PRES   REMARKS
DALTON*        CLEAR     68  68 100 CALM      30.12S FOG
MARIETTA       CLEAR     75  67  75 VRB2      30.11F
CANTON*        CLEAR    N/A N/A N/A CALM      30.15S
BLAIRSVILLE*   FOG      N/A N/A N/A MISG      30.19F VSB<1/4
$$

GAZ059>098-102>109-290900-
CENTRAL GEORGIA

CITY           SKY/WX    TMP DP  RH WIND       PRES   REMARKS
AUGUSTA-BUSH   CLOUDY    75  72  90 CALM      30.07F
AUGUSTA-DANIEL CLOUDY    79  72  79 N6        30.09S
COLUMBUS       CLEAR     78  68  71 E6        30.05R
MACON          CLEAR     74  70  87 E6        30.06F
ROBINS AFB     CLEAR     76  72  86 NE3       30.05F


CITY           SKY/WX    TMP DP  RH WIND       PRES   REMARKS
LAGRANGE*      CLEAR     78  74  87 CALM      30.08R
MILLEDGEVILLE* CLEAR     77  73  88 E5        30.08F
$$

GAZ099>101-110>166-290900-
SOUTH GEORGIA

CITY           SKY/WX    TMP DP  RH WIND       PRES   REMARKS
SAVANNAH       CLEAR     76  73  91 N8        30.03F
VALDOSTA       CLEAR     75  74  96 NE5       30.01S
ALMA           CLEAR     73  71  93 CALM      30.03S
ST SIMONS      CLEAR     81  73  76 E9        30.00S
FT STEWART     CLEAR     74  73  94 NE6       30.01S
ALBANY         CLEAR     76  72  87 NE7       30.04S
HUNTER AFB     CLEAR     76  76 100 N6        30.00F
MOODY AFB      CLEAR     73  71  92 NE6       30.00F
BRUNSWICK      CLEAR     73  73 100 N3        30.01F


CITY           SKY/WX    TMP DP  RH WIND       PRES   REMARKS
BAINBRIDGE*    CLEAR     77  73  88 CALM      30.01S
MOULTRIE*      CLEAR     75  72  88 CALM      30.03S
VIDALIA*       CLEAR     75  75 100 NE7       30.04F
WAYCROSS*        N/A     75  75 100 NE5       30.02S
DOUGLAS*       PTCLDY    73  70  88 NE6       30.05R
$$




USA.gov is the U.S. government's official web portal to all federal, state and local government web resources and services.